This is the latest recevied weather packets stored in our database for station/object KC5TIL. If no packets are shown the sender has not sent any weather packets the latest 1 day(s).
| Time | Temp. | Humidity | Pressure | Rain* | Wind** | Luminosity | Snow |
|---|---|---|---|---|---|---|---|
| 1778029767 | 25.56° C | 64% | 1006.7 hPa | 0 mm | 1.79 m/s, 350° | 0 W/m² | - |
| 1778029466 | 25.56° C | 63% | 1006.7 hPa | 0 mm | 0.89 m/s, 355° | 2 W/m² | - |
| 1778029162 | 25.56° C | 62% | 1006.5 hPa | 0 mm | 1.34 m/s, 62° | 4 W/m² | - |
| 1778028860 | 26.11° C | 62% | 1006.3 hPa | 0 mm | 1.79 m/s, 23° | 7 W/m² | - |
| 1778028555 | 26.11° C | 62% | 1006.3 hPa | 0 mm | 2.24 m/s, 336° | 13 W/m² | - |
| 1778028253 | 26.11° C | 62% | 1006.2 hPa | 0 mm | 0.45 m/s, 2° | 14 W/m² | - |
| 1778027949 | 26.11° C | 62% | 1006.1 hPa | 0 mm | 0.45 m/s, 83° | 14 W/m² | - |
| 1778027645 | 26.11° C | 61% | 1005.9 hPa | 0 mm | 0.89 m/s, 313° | 18 W/m² | - |
| 1778027342 | 26.67° C | 61% | 1006 hPa | 0 mm | 2.24 m/s, 335° | 22 W/m² | - |
| 1778027038 | 26.67° C | 61% | 1006.1 hPa | 0 mm | 1.34 m/s, 9° | 30 W/m² | - |
| 1778026734 | 26.67° C | 60% | 1006 hPa | 0 mm | 1.34 m/s, 322° | 39 W/m² | - |
| 1778026431 | 27.22° C | 59% | 1005.9 hPa | 0 mm | 1.79 m/s, 25° | 54 W/m² | - |
| 1778026134 | 27.22° C | 59% | 1006 hPa | 0 mm | 1.34 m/s, 274° | 51 W/m² | - |
| 1778025826 | 27.78° C | 58% | 1005.9 hPa | 0 mm | 0.89 m/s, 311° | 50 W/m² | - |
| 1778025522 | 27.78° C | 58% | 1005.9 hPa | 0 mm | 1.34 m/s, 252° | 64 W/m² | - |
| 1778025220 | 27.78° C | 57% | 1005.9 hPa | 0 mm | 1.34 m/s, 252° | 81 W/m² | - |
| 1778024916 | 27.78° C | 57% | 1005.6 hPa | 0 mm | 1.34 m/s, 357° | 76 W/m² | - |
| 1778024615 | 28.33° C | 57% | 1005.6 hPa | 0 mm | 3.13 m/s, 24° | 65 W/m² | - |
| 1778024316 | 28.33° C | 57% | 1005.5 hPa | 0 mm | 1.34 m/s, 11° | 75 W/m² | - |
| 1778024009 | 28.89° C | 57% | 1005.3 hPa | 0 mm | 1.34 m/s, 7° | 89 W/m² | - |
| 1778023706 | 29.44° C | 56% | 1005.4 hPa | 0 mm | 2.68 m/s, 295° | 95 W/m² | - |
| 1778023404 | 30.56° C | 52% | 1005.2 hPa | 0 mm | 1.34 m/s, 13° | 103 W/m² | - |
| 1778023100 | 30.56° C | 50% | 1005.3 hPa | 0 mm | 2.24 m/s, 277° | 84 W/m² | - |
| 1778022798 | 30.56° C | 49% | 1005 hPa | 0 mm | 1.34 m/s, 273° | 85 W/m² | - |
| 1778022496 | 31.11° C | 50% | 1005 hPa | 0 mm | 0.45 m/s, 123° | 158 W/m² | - |
* Rain latest hour (hover to see other rain measurements)
** Current wind speed in m/s (hover to see current wind gust speed)